GW3577 Weather Reports


time (UTC)temp
C
wind
direction
speed
KPH
gust
KPH
rain 1hr
cm
rain 24hr
cm
rain mn
cm
humidity
%
barometer
mb
20260508002212 11 142 0.0 0.0 0.00 0.30 0.30 97 1012.6
20260508001707 11 142 0.0 0.0 0.00 0.30 0.30 97 1012.3
20260508001203 11 142 0.0 0.0 0.00 0.30 0.30 97 1012.3
20260508000659 11 142 0.0 0.0 0.00 0.30 0.30 97 1012.3
20260508000157 11 142 0.0 0.0 0.00 0.30 0.30 96 1012.3
20260507235653 11 142 0.0 0.0 0.00 0.30 0.30 96 1012.3
20260507235151 11 142 0.0 0.0 0.00 0.30 0.30 96 1012.3
20260507234647 11 142 0.0 0.0 0.00 0.30 0.30 96 1012.0
20260507234144 11 142 0.0 0.0 0.00 0.30 0.30 96 1012.0
20260507233641 11 142 0.0 0.0 0.00 0.30 0.30 96 1012.0
20260507233139 11 142 0.0 0.0 0.00 0.30 0.30 96 1012.0
20260507232635 11 142 0.0 0.0 0.00 0.30 0.30 95 1012.0
20260507232133 11 142 0.0 0.0 0.00 0.30 0.30 96 1012.0
20260507231629 11 142 0.0 0.0 0.00 0.30 0.30 96 1011.6
20260507231126 11 142 0.0 3.2 0.00 0.30 0.30 96 1011.6
20260507230622 11 142 0.0 0.0 0.00 0.30 0.30 96 1011.6
20260507230120 11 142 0.0 0.0 0.00 0.30 0.30 96 1011.6
20260507225614 11 142 0.0 0.0 0.00 0.30 0.30 96 1011.6
20260507225111 11 142 0.0 0.0 0.00 0.30 0.30 96 1011.6
20260507224607 11 142 0.0 0.0 0.00 0.30 0.30 95 1011.6
20260507224104 11 142 0.0 0.0 0.00 0.30 0.30 95 1011.6
20260507223559 11 142 0.0 0.0 0.00 0.30 0.30 95 1011.6
20260507223056 11 142 0.0 0.0 0.00 0.30 0.30 95 1011.6
20260507222554 11 142 0.0 0.0 0.00 0.30 0.30 96 1011.6
20260507222050 11 142 0.0 3.2 0.00 0.30 0.30 95 1011.6
20260507221547 11 142 0.0 0.0 0.00 0.30 0.30 96 1011.3
20260507221044 11 142 0.0 0.0 0.00 0.30 0.30 96 1011.6
20260507220541 11 142 0.0 3.2 0.00 0.30 0.30 96 1011.3
20260507220038 11 142 0.0 1.6 0.00 0.30 0.30 96 1011.3
20260507215534 11 142 0.0 1.6 0.00 0.30 0.30 96 1011.3
20260507215032 11 142 0.0 3.2 0.00 0.30 0.30 96 1011.3
20260507214530 11 142 1.6 3.2 0.00 0.30 0.30 95 1011.3
20260507214025 11 142 0.0 3.2 0.00 0.30 0.30 94 1011.3
20260507213521 11 142 0.0 1.6 0.00 0.30 0.30 94 1011.6
20260507213019 11 142 1.6 3.2 0.00 0.30 0.30 94 1011.3
20260507212514 11 142 0.0 3.2 0.00 0.30 0.30 94 1011.3
20260507212011 11 142 1.6 6.4 0.00 0.30 0.30 94 1011.3
20260507211508 11 142 3.2 4.8 0.00 0.30 0.30 93 1011.3
20260507211004 11 142 4.8 6.4 0.00 0.30 0.30 94 1011.3
20260507210501 11 108 1.6 6.4 0.00 0.30 0.30 92 1010.9
20260507205958 11 108 4.8 6.4 0.00 0.30 0.30 93 1010.9
20260507205455 11 127 9.7 16.1 0.00 0.30 0.30 93 1011.3
20260507204951 12 195 0.0 0.0 0.00 0.30 0.30 93 1010.9
20260507204448 12 195 0.0 0.0 0.00 0.30 0.30 91 1011.3
20260507203945 12 195 0.0 0.0 0.00 0.30 0.30 91 1011.3
20260507203443 12 195 0.0 0.0 0.00 0.30 0.30 92 1011.3
20260507202939 12 195 0.0 0.0 0.00 0.30 0.30 93 1011.3
20260507202436 12 195 0.0 0.0 0.00 0.30 0.30 92 1011.3
20260507201932 12 195 0.0 1.6 0.00 0.30 0.30 92 1011.3
20260507201432 12 195 0.0 3.2 0.00 0.30 0.30 93 1011.3
20260507200929 11 195 1.6 3.2 0.00 0.30 0.30 94 1011.3
20260507200425 11 195 0.0 3.2 0.00 0.30 0.30 94 1011.6
20260507195921 11 195 0.0 3.2 0.00 0.30 0.30 94 1011.6
20260507195419 11 195 0.0 3.2 0.00 0.30 0.30 96 1011.6
20260507194916 11 195 0.0 3.2 0.00 0.30 0.30 96 1011.6
20260507194412 11 195 0.0 4.8 0.00 0.30 0.30 95 1012.0
20260507193908 11 195 1.6 3.2 0.00 0.28 0.28 96 1011.6
20260507193406 11 195 0.0 0.0 0.00 0.25 0.25 96 1011.6
20260507192902 11 195 3.2 6.4 0.00 0.25 0.25 96 1012.0
20260507192358 11 195 1.6 3.2 0.00 0.25 0.25 96 1012.0
20260507191855 11 195 0.0 3.2 0.00 0.23 0.23 96 1011.6
20260507191351 11 224 0.0 6.4 0.00 0.23 0.23 96 1012.0
20260507190848 11 137 0.0 3.2 0.00 0.23 0.23 96 1012.0
20260507190346 11 137 0.0 3.2 0.00 0.23 0.23 96 1012.3
20260507185845 11 137 0.0 4.8 0.00 0.23 0.23 95 1012.0
20260507185342 11 166 3.2 4.8 0.00 0.23 0.23 95 1012.3
20260507184838 11 167 0.0 0.0 0.00 0.23 0.23 95 1012.3
20260507184336 11 167 1.6 3.2 0.00 0.23 0.23 95 1012.3
20260507183833 11 167 0.0 3.2 0.00 0.23 0.23 96 1012.0
20260507183330 11 220 1.6 6.4 0.00 0.20 0.20 96 1012.3
20260507182828 11 131 0.0 4.8 0.00 0.18 0.18 96 1012.3
20260507182323 11 131 4.8 6.4 0.00 0.18 0.18 96 1012.0
20260507181820 11 131 4.8 8.0 0.00 0.18 0.18 96 1012.3
20260507181316 11 127 6.4 9.7 0.00 0.18 0.18 96 1012.0
20260507180813 11 114 3.2 6.4 0.00 0.18 0.18 96 1012.0
20260507180309 12 114 6.4 9.7 0.00 0.18 0.18 95 1012.0
20260507175805 12 114 0.0 3.2 0.00 0.15 0.15 94 1012.3
20260507175306 12 114 0.0 3.2 0.00 0.15 0.15 94 1012.0
20260507174759 12 122 4.8 8.0 0.00 0.15 0.15 94 1012.0
20260507174257 12 159 0.0 3.2 0.00 0.15 0.15 95 1012.0
20260507173755 12 138 1.6 4.8 0.00 0.15 0.15 94 1012.0
20260507173252 12 147 3.2 9.7 0.00 0.15 0.15 94 1012.0
20260507172748 12 153 1.6 6.4 0.00 0.15 0.15 94 1012.3
20260507172245 12 153 3.2 6.4 0.00 0.15 0.15 95 1012.3
20260507171740 12 153 1.6 4.8 0.00 0.15 0.15 94 1012.3
20260507171238 12 107 4.8 8.0 0.00 0.15 0.15 94 1012.3
20260507170734 12 130 6.4 9.7 0.00 0.15 0.15 94 1012.3
20260507170231 12 122 6.4 9.7 0.00 0.15 0.15 93 1012.3
20260507165727 12 106 4.8 9.7 0.00 0.15 0.15 94 1012.3
20260507165223 12 106 3.2 6.4 0.00 0.15 0.15 94 1012.6
20260507164719 12 106 3.2 8.0 0.00 0.15 0.15 94 1012.6
20260507164217 12 106 1.6 4.8 0.00 0.15 0.15 95 1012.6
20260507163714 12 116 3.2 6.4 0.00 0.15 0.15 95 1012.6
20260507163212 12 116 4.8 6.4 0.00 0.15 0.15 94 1012.6
20260507162707 12 116 3.2 6.4 0.00 0.15 0.15 96 1012.6
20260507162203 12 116 3.2 6.4 0.00 0.15 0.15 95 1012.6
20260507161700 12 116 3.2 6.4 0.00 0.15 0.15 96 1012.6
20260507161156 12 95 6.4 9.7 0.00 0.15 0.15 96 1012.6
20260507160653 12 91 0.0 3.2 0.00 0.15 0.15 97 1013.0
20260507160149 12 118 4.8 6.4 0.00 0.15 0.15 97 1013.0
20260507155645 12 141 6.4 11.3 0.00 0.15 0.15 97 1013.0
20260507155142 12 124 4.8 8.0 0.00 0.15 0.15 98 1013.0
20260507154638 12 124 0.0 3.2 0.00 0.15 0.15 98 1013.0
20260507154136 12 124 1.6 4.8 0.00 0.15 0.15 98 1013.3
20260507153632 12 124 3.2 6.4 0.00 0.15 0.15 98 1012.6
20260507153129 12 124 4.8 6.4 0.00 0.15 0.15 98 1013.0
20260507152625 12 124 1.6 4.8 0.00 0.15 0.15 98 1013.0
20260507152121 12 124 3.2 3.2 0.00 0.15 0.15 98 1013.0
20260507151617 12 124 1.6 6.4 0.00 0.15 0.15 98 1013.0
20260507151115 12 124 0.0 0.0 0.00 0.15 0.15 98 1013.0
20260507150612 12 124 0.0 0.0 0.00 0.15 0.15 98 1013.0
20260507150108 12 124 0.0 0.0 0.00 0.15 0.15 98 1013.0
20260507145603 12 124 0.0 0.0 0.00 0.15 0.15 98 1013.3
20260507145056 12 124 0.0 0.0 0.00 0.15 0.15 98 1013.3
20260507144552 12 124 0.0 0.0 0.00 0.15 0.15 98 1013.0
20260507144050 12 124 0.0 0.0 0.00 0.15 0.15 98 1012.6
20260507143547 12 124 0.0 0.0 0.00 0.15 0.15 98 1012.6
20260507143044 11 124 0.0 0.0 0.00 0.13 0.13 98 1012.6
20260507142544 11 124 0.0 0.0 0.00 0.13 0.13 98 1013.0
20260507142042 11 124 0.0 0.0 0.00 0.13 0.13 98 1013.0
20260507141538 11 124 0.0 0.0 0.00 0.13 0.13 98 1013.0
20260507141035 11 124 0.0 0.0 0.00 0.13 0.13 98 1013.0
20260507140531 11 124 0.0 0.0 0.00 0.10 0.10 98 1013.0
20260507140029 11 124 0.0 3.2 0.00 0.10 0.10 98 1013.0
20260507135526 11 124 0.0 0.0 0.00 0.08 0.08 98 1013.3
20260507135023 11 124 0.0 0.0 0.00 0.08 0.08 98 1013.3
20260507134519 11 124 0.0 0.0 0.00 0.08 0.08 98 1013.3
20260507134015 11 124 0.0 0.0 0.00 0.08 0.08 98 1013.3
20260507133511 11 124 0.0 0.0 0.00 0.08 0.08 98 1013.3
20260507133010 11 124 0.0 0.0 0.00 0.08 0.08 98 1013.0
20260507132506 11 124 0.0 0.0 0.00 0.08 0.08 98 1013.0
20260507132002 12 124 0.0 0.0 0.00 0.08 0.08 98 1013.3
20260507131459 12 124 0.0 0.0 0.00 0.08 0.08 97 1013.3
20260507130956 12 124 0.0 0.0 0.00 0.08 0.08 98 1013.0
20260507130453 12 124 0.0 0.0 1.19 0.05 0.05 97 1013.0
20260507125952 12 124 0.0 0.0 0.00 0.05 0.05 98 1013.0
20260507125450 12 164 0.0 3.2 0.00 0.05 0.05 98 1013.0
20260507124947 12 41 0.0 0.0 0.00 0.05 0.05 97 1013.0
20260507124443 12 41 0.0 0.0 0.00 0.05 0.05 97 1013.0
20260507123941 12 145 0.0 0.0 0.00 0.05 0.05 98 1013.0
20260507123439 12 145 0.0 0.0 0.00 0.05 0.05 98 1013.0
20260507122935 12 193 0.0 1.6 0.00 0.05 0.05 98 1013.0
20260507122430 12 145 6.4 14.5 0.00 0.05 0.05 97 1012.6
20260507121926 12 194 3.2 6.4 0.00 0.05 0.05 97 1012.6
20260507121422 12 136 0.0 3.2 0.00 0.05 0.05 98 1012.6
20260507120919 12 136 0.0 0.0 0.00 0.05 0.05 97 1012.6
20260507120415 12 136 4.8 9.7 0.00 0.05 0.05 98 1012.6
20260507115911 13 136 4.8 8.0 0.00 0.05 0.05 98 1012.6
20260507115407 13 136 1.6 4.8 0.00 0.05 0.05 98 1012.6
20260507114903 13 136 0.0 1.6 0.00 0.05 0.05 98 1012.3
20260507114400 13 216 0.0 0.0 0.00 0.05 0.05 98 1012.3
20260507113857 13 216 0.0 0.0 0.00 0.05 0.05 98 1012.3
20260507113355 13 216 0.0 3.2 0.00 0.05 0.05 98 1012.3
20260507112852 13 136 4.8 6.4 0.00 0.05 0.05 98 1012.3
20260507112349 13 136 1.6 6.4 0.00 0.05 0.05 98 1012.0
20260507111847 13 136 1.6 4.8 0.00 0.05 0.05 98 1012.0
20260507111343 14 131 6.4 9.7 0.00 0.05 0.05 98 1012.0
20260507110839 14 135 4.8 6.4 0.00 0.05 0.05 98 1012.0
20260507110335 15 131 4.8 8.0 0.00 0.05 0.05 98 1012.0
20260507105833 15 139 1.6 3.2 0.00 0.05 0.05 98 1011.6
20260507105329 15 139 4.8 8.0 0.00 0.05 0.05 98 1011.6
20260507104826 15 40 4.8 12.9 0.00 0.05 0.05 99 1011.6
20260507104322 15 327 0.0 0.0 0.00 0.05 0.05 99 1011.3
20260507103818 15 327 0.0 0.0 0.00 0.05 0.05 99 1011.3
20260507103315 15 327 0.0 0.0 0.00 0.05 0.05 99 1011.3
20260507102812 15 327 0.0 0.0 0.00 0.05 0.05 99 1011.3
20260507102309 15 327 0.0 0.0 0.00 0.05 0.05 99 1011.3
20260507101805 15 327 0.0 0.0 0.00 0.05 0.05 99 1011.3
20260507101304 15 327 0.0 0.0 0.00 0.05 0.05 99 1011.3
20260507100802 15 327 0.0 0.0 0.00 0.05 0.05 98 1011.6
20260507100300 15 327 1.6 4.8 0.00 0.05 0.05 98 1011.3
20260507095758 15 327 0.0 0.0 0.00 0.05 0.05 98 1011.3
20260507095254 15 327 0.0 0.0 0.00 0.05 0.05 98 1011.3
20260507094751 15 327 0.0 0.0 0.00 0.05 0.05 98 1011.3
20260507094248 15 327 0.0 0.0 0.00 0.05 0.05 98 1011.3
20260507093745 15 327 0.0 0.0 0.00 0.05 0.05 99 1011.3
20260507093243 15 327 0.0 1.6 0.00 0.05 0.05 98 1010.9
20260507092741 15 225 0.0 1.6 0.00 0.05 0.05 98 1010.5
20260507092236 15 219 0.0 0.0 0.00 0.05 0.05 98 1010.5
20260507091733 15 219 0.0 0.0 0.00 0.05 0.05 98 1010.9
20260507091230 15 219 0.0 0.0 0.00 0.05 0.05 98 1011.3
20260507090726 15 219 0.0 0.0 0.00 0.05 0.05 99 1011.3
20260507090222 15 219 0.0 0.0 0.00 0.05 0.05 98 1011.6
20260507085719 15 219 1.6 3.2 0.00 0.05 0.05 99 1011.3
20260507085216 15 219 0.0 0.0 0.00 0.05 0.05 98 1011.3
20260507084713 15 219 0.0 0.0 0.00 0.05 0.05 99 1011.3
20260507084209 15 219 0.0 0.0 0.00 0.05 0.05 99 1011.3
20260507083707 15 219 0.0 0.0 0.00 0.05 0.05 99 1010.9
20260507083203 15 219 0.0 0.0 0.00 0.05 0.05 99 1010.9
20260507082659 15 219 0.0 0.0 0.00 0.05 0.05 99 1010.9
20260507082155 16 219 0.0 0.0 0.00 0.05 0.05 99 1010.9
20260507081652 16 323 0.0 0.0 0.00 0.05 0.05 99 1011.3
20260507081148 16 323 0.0 0.0 0.00 0.05 0.05 99 1011.3
20260507080645 16 323 0.0 0.0 0.00 0.05 0.05 99 1011.3
20260507080142 16 56 1.6 6.4 0.00 0.05 0.05 99 1011.3
20260507075642 16 33 0.0 0.0 0.00 0.05 0.05 99 1011.3
20260507075139 16 33 0.0 0.0 0.00 0.05 0.05 99 1010.9
20260507074636 16 87 0.0 0.0 0.00 0.05 0.05 99 1010.9
20260507074134 16 104 0.0 0.0 0.00 0.05 0.05 99 1010.9
20260507073630 16 104 0.0 0.0 0.00 0.05 0.05 99 1010.9
20260507073126 16 104 0.0 0.0 0.00 0.05 0.05 99 1010.5
20260507072624 16 104 0.0 0.0 0.00 0.05 0.05 99 1010.9
20260507072121 16 104 0.0 0.0 0.00 0.05 0.05 99 1010.9
20260507071619 16 104 0.0 0.0 0.00 0.05 0.05 99 1010.9
20260507071115 16 104 3.2 4.8 0.00 0.05 0.05 99 1010.9
20260507070612 16 104 0.0 0.0 0.00 0.05 0.05 99 1010.9
20260507070109 16 104 0.0 0.0 0.00 0.05 0.05 99 1010.9
20260507065605 16 104 0.0 0.0 0.00 0.05 0.05 99 1010.5
20260507065103 16 104 0.0 0.0 0.00 0.05 0.05 99 1010.5
20260507064600 16 104 0.0 0.0 0.00 0.05 0.05 99 1010.5
20260507064059 16 104 0.0 0.0 0.00 0.05 0.05 99 1010.5
20260507063555 16 104 0.0 0.0 0.00 0.05 0.05 98 1010.2
20260507063053 16 104 0.0 0.0 0.00 0.05 0.05 98 1010.2
20260507062549 16 104 0.0 0.0 0.00 0.05 0.05 98 1010.5
20260507062047 16 104 0.0 0.0 0.00 0.05 0.05 98 1010.5
20260507061544 16 104 0.0 0.0 0.00 0.05 0.05 98 1010.9
20260507061042 16 104 0.0 0.0 0.00 0.05 0.05 98 1010.9
20260507060540 17 104 0.0 0.0 0.00 0.05 0.05 98 1010.9
20260507060037 17 113 3.2 6.4 0.00 0.05 0.05 98 1010.9
20260507055531 16 128 0.0 3.2 0.00 0.05 0.05 99 1011.3
20260507055028 16 128 0.0 0.0 0.00 0.05 0.05 99 1011.3
20260507054524 16 128 0.0 0.0 0.00 0.05 0.05 99 1011.3
20260507054021 16 128 0.0 0.0 0.00 0.05 0.05 99 1010.9
20260507053519 16 128 0.0 0.0 0.00 0.05 0.05 99 1011.3
20260507053018 16 128 0.0 0.0 0.00 0.05 0.05 99 1010.9
20260507052515 16 128 0.0 0.0 0.00 0.05 0.05 99 1010.9
20260507052011 16 128 0.0 0.0 0.00 0.05 0.05 99 1010.5
20260507051509 16 128 0.0 0.0 0.00 0.05 0.05 99 1010.2
20260507051006 16 128 0.0 0.0 0.00 0.05 0.05 99 1009.8
20260507050502 16 128 0.0 0.0 0.00 0.05 0.05 99 1010.2
20260507045959 16 128 0.0 0.0 0.00 0.05 0.05 98 1010.2
20260507045455 16 128 0.0 0.0 0.00 0.05 0.05 98 1010.5
20260507044953 16 128 0.0 0.0 0.00 0.03 0.03 98 1010.5
20260507044450 17 128 0.0 0.0 0.00 0.03 0.03 98 1010.5
20260507043946 17 128 0.0 0.0 0.00 0.03 0.03 98 1010.5
20260507043442 17 128 0.0 3.2 0.00 0.03 0.03 98 1010.5
20260507042939 17 128 0.0 3.2 0.00 0.03 0.03 98 1010.5
20260507042436 17 128 0.0 1.6 0.00 0.03 0.03 98 1010.9
20260507041931 17 128 0.0 1.6 0.00 0.03 0.03 97 1010.9
20260507041428 17 128 0.0 0.0 0.00 0.03 0.03 97 1011.3
20260507040926 17 128 0.0 0.0 0.00 0.03 0.03 97 1011.3
20260507040421 17 128 0.0 0.0 0.00 0.03 0.03 96 1011.3
20260507035917 17 128 0.0 3.2 0.00 0.36 0.36 96 1011.3
20260507035414 17 128 1.6 4.8 0.00 0.36 0.36 96 1011.6
20260507034911 17 128 1.6 3.2 0.00 0.36 0.36 96 1011.6
20260507034407 17 221 0.0 0.0 0.00 0.36 0.36 96 1011.6
20260507033905 17 221 0.0 0.0 0.00 0.36 0.36 96 1011.6
20260507033403 17 225 0.0 0.0 0.00 0.36 0.36 96 1011.6
20260507032900 17 225 0.0 0.0 0.00 0.36 0.36 96 1011.6
20260507032357 17 247 0.0 0.0 0.00 0.33 0.33 95 1011.6
20260507031853 17 247 0.0 0.0 0.00 0.33 0.33 95 1012.0
20260507031350 17 247 0.0 0.0 0.00 0.33 0.33 94 1012.0
20260507030846 17 247 0.0 0.0 0.00 0.33 0.33 94 1012.0
20260507030344 17 247 0.0 0.0 0.00 0.33 0.33 94 1012.0
20260507025840 17 247 0.0 0.0 0.00 0.33 0.33 94 1011.6
20260507025338 17 247 0.0 0.0 0.00 0.33 0.33 94 1011.6
20260507024836 17 247 0.0 0.0 0.00 0.33 0.33 94 1011.6
20260507024333 17 247 0.0 0.0 0.00 0.33 0.33 95 1011.6
20260507023828 17 247 0.0 0.0 0.00 0.33 0.33 95 1011.6
20260507023325 17 247 0.0 0.0 0.00 0.33 0.33 94 1011.6
20260507022823 17 247 0.0 0.0 0.00 0.33 0.33 95 1011.6
20260507022319 17 247 0.0 0.0 0.00 0.33 0.33 96 1011.6
20260507021815 16 247 0.0 0.0 0.00 0.33 0.33 96 1011.6
20260507021311 17 247 0.0 0.0 0.00 0.33 0.33 96 1011.3
20260507020809 17 247 0.0 0.0 0.00 0.33 0.33 96 1011.3
20260507020305 16 247 0.0 0.0 0.00 0.33 0.33 96 1010.9
20260507015802 17 233 0.0 0.0 0.00 0.33 0.33 96 1010.5
20260507015300 16 233 0.0 0.0 0.00 0.33 0.33 96 1010.9
20260507014757 16 233 0.0 0.0 0.00 0.33 0.33 96 1010.9
20260507014253 16 233 0.0 0.0 0.00 0.33 0.33 95 1010.9
20260507013749 17 233 0.0 0.0 0.00 0.33 0.33 95 1010.9
20260507013247 17 233 0.0 0.0 0.00 0.33 0.33 95 1010.9
20260507012744 17 233 0.0 0.0 0.00 0.33 0.33 95 1011.3
20260507012244 17 233 0.0 0.0 0.00 0.33 0.33 95 1011.3
20260507011742 17 233 0.0 0.0 0.00 0.33 0.33 95 1011.3
20260507011239 17 233 0.0 1.6 0.00 0.33 0.33 95 1011.3
20260507010738 17 233 0.0 0.0 0.00 0.33 0.33 95 1011.3
20260507010234 17 233 0.0 0.0 0.00 0.33 0.33 95 1011.3
20260507005732 17 233 0.0 0.0 0.00 0.33 0.33 94 1011.3
20260507005228 17 233 0.0 3.2 0.00 0.33 0.33 93 1011.3
20260507004724 17 233 0.0 0.0 0.00 0.33 0.33 93 1011.3
20260507004223 17 233 0.0 0.0 0.00 0.33 0.33 91 1011.3
20260507003718 17 233 0.0 0.0 0.00 0.33 0.33 90 1011.3
20260507003214 18 233 0.0 0.0 0.00 0.33 0.33 89 1010.9
20260507002711 18 233 0.0 0.0 0.00 0.33 0.33 89 1010.9